Regional Weather Roundup
Issued by NWS Charleston, SC

Current Version | Previous Version | Graphics & Text | Print | Product List | Glossary On
Versions: 1 2 3 4 5 6 7 8 9 10 11 12 13 14 15 16 17 18 19 20 21 22 23 24 25 26 27 28 29 30 31 32 33 34 35 36 37 38 39 40 41 42 43 44 45 46 47 48 49 50
947 ASUS42 KCHS 230727 RWRCHS REGIONAL WEATHER ROUNDUP NATIONAL WEATHER SERVICE CHARLESTON SC 200 AM EST THU NOV 23 2017 NOTE: "FAIR" INDICATES FEW OR NO CLOUDS BELOW 12,000 FEET WITH NO SIGNIFICANT WEATHER AND/OR OBSTRUCTIONS TO VISIBILITY. NOT ALL STATIONS ARE QUALITY CONTROLLED. USE DATA WITH CAUTION... ESPECIALLY DEWPOINT OBSERVATIONS. SCZ027-030-031-034>040-042>050-230800- ...SOUTHEAST SOUTH CAROLINA... CITY SKY/WX TMP DP RH WIND PRES REMARKS N CHARLESTON PTCLDY 52 42 69 N7 30.06F WATERFRONT PRK NOT AVBL JOHNS ISLAND FAIR 55 43 62 N6 30.05S PINOPOLIS N/A 54 45 71 NE12 30.00F MONCKS CORNER FAIR 50 34 53 NE10 30.08R SUMMERVILLE FAIR 48 43 81 N3 30.08S BEAUFORT MCAS CLOUDY 56 47 71 NE8 30.05F BEAUFORT ARPT FAIR 55 46 71 NE9 30.04F HILTON HEAD IS CLEAR 57 48 72 NE7 30.05S WALTERBORO CLOUDY 52 41 66 NE7 30.07S ALLENDALE CLOUDY 54 43 66 CALM 30.06S ...SOUTHERN MIDLANDS AND PEE DEE... CITY SKY/WX TMP DP RH WIND PRES REMARKS GEORGETOWN FAIR 50 37 62 N7 30.08F KINGSTREE FAIR 46 32 57 N6 30.10F ORANGEBURG PTCLDY 51 37 58 NE9 30.08F BARNWELL N/A 54 41 62 NE5 30.08S AIKEN FAIR 48 36 61 NE7 30.11F MANNING FAIR 50 36 57 MISG 30.09F COLUMBIA CLOUDY 52 32 46 NE8 30.10S SUMTER CLOUDY 47 30 51 NE10 30.09S FLORENCE CLEAR 45 32 60 N8 30.12S MYRTLE BEACH PTCLDY 50 35 56 N14 30.10S N MYRTLE BEACH CLOUDY 48 36 63 N10 30.09S $$ GAZ063-065-086>088-099>101-113>116-118-119-134>141-150-230800- ...SOUTHEAST GEORGIA... CITY SKY/WX TMP DP RH WIND PRES REMARKS SAVANNAH ARPT CLOUDY 57 51 80 NE7 30.04F HUNTER AAF PTCLDY 58 53 82 NE7 30.01F FORT STEWART CLOUDY 57 55 95 NE5 30.00F STATESBORO PTCLDY 56 45 67 CALM 30.05S SYLVANIA CLOUDY 56 49 80 E6 30.06S CLAXTON PTSUNNY 58 54 84 NE7 30.03F ...CSRA...CENTRAL AND FAR SOUTHEAST GEORGIA... CITY SKY/WX TMP DP RH WIND PRES REMARKS THOMSON CLOUDY 52 43 72 E6 30.14R AUGUSTA-BUSH PTCLDY 53 41 63 E3 30.07F AUGUSTA-DANIEL MOCLDY 56 36 47 NE9 30.08F SWAINSBORO CLOUDY 55 46 71 E8 30.05F VIDALIA CLOUDY 57 55 94 NE7 30.03F EASTMAN PTSUNNY 54 44 68 CALM 30.05F HAZLEHURST FAIR 59 57 94 CALM 30.01F ALMA CLOUDY 60 58 92 CALM 30.01F FOG WAYCROSS DRIZZLE 60 58 90 E3 30.01F JESUP CLOUDY 61 57 88 CALM 30.02S BAXLEY DRIZZLE 55 55 100 CALM 30.02S BRUNSWICK MOCLDY 59 55 88 N3 30.01F SAINT SIMONS MOCLDY 62 60 93 N6 30.01S $$ SCZ027-028-034-036>038-045-046-048>050-GAZ119-141-230800- ...LAKE AND SUPPLEMENTAL COASTAL OBSERVATIONS... STATION/POSITION TIME TEMP WIND PRES WAVE SWELL AIR SEA DIR/SP/G HT/PER HT/PER/DIR (UTC) (F) (DEG/KT/KT) (MB) (FT/S) (FT/S/D) WINYAH BAY 0630 53 30/ 7 1019.0S LAKE MURRAY 0720 49 30/ 3/ 7 1019.0 ACE BASIN NERRS 0645 54 10/ 1 1017.0F FORT PULASKI 0700 60 62 50/ 10/ 13 1017.2 SAPELO ISLAND 0700 59 40/ 5 1016.0 $$ ANZ835-935-AMZ111-154-330-350-352-354-370-450-454-472-230800- ...C-MAN AND BUOY OBSERVATIONS... STATION/POSITION TIME TEMP WIND PRES WAVE SWELL AIR SEA DIR/SP/G HT/PER HT/PER/DIR (UTC) (F) (DEG/KT/KT) (MB) (FT/S) (FT/S/D) BUOY 41004 0710 66 75 40/ 17/ 21 1016.2 BUOY 41008 0650 66 67 60/ 12/ 14 1015.8F 3/ 9 3/110/ 9 FOLLY BEACH CMAN 0700 58 40/ 15/ 17 1017.7F CAPERS NEARSHORE 0708 56 62 40/ 16/ 21 1016.8F FRIPP NEARSHORE 0708 58 62 50/ 14/ 25 1016.0S STATION/POSITION TIME TEMP WIND PRES WAVE SWELL AIR SEA DIR/SP/G HT/PER HT/PER/DIR (UTC) (F) (DEG/KT/KT) (MB) (FT/S) (FT/S/D) 5E ST. MARYS GA 0700 67 N/A 3/10 FRYING PAN BUOY 0710 64 72 30/ 17/ 21 1016.8 BUOY 41025 0710 57 73 360/ 19/ 25 1018.6 CAPE LOOKOUT NC 0700 20/ 15/ 18 1019.4F BUOY 41002 0650 72 76 10/ 8/ 10 1014.5R 6/ 9 7/130/ 9 BUOY 41010 NOT AVBL ST AUGUSTINE FL 0700 69 69 30/ 14/ 16 1014.4F $$

USA.gov is the U.S. government's official web portal to all federal, state and local government web resources and services.